Rochester/St. Mary\'s Hospita, MN

6:00 PM CDT on March 25, 2017 (GMT -0500)
Rochester/St. Mary\'s Hospita

Weather History for K9MN - December, 2013

Change the Weather History Date:

Tuesday, December 10, 2013

  Actual Average (KRST) Record (KRST)
Temperature  
Mean Temperature 8 °F -  
Max Temperature 15 °F 27 °F 58 °F (1939)
Min Temperature 1 °F 10 °F -21 °F (1919)
Degree Days  
Heating Degree Days 58    
Moisture  
Dew Point 2 °F    
Average Humidity 73    
Maximum Humidity 83    
Minimum Humidity 61    
Precipitation  
Precipitation 0.00 in - - ()
Sea Level Pressure  
Sea Level Pressure 29.98 in    
Wind  
Wind Speed 14 mph (WSW)    
Max Wind Speed 32 mph    
Max Gust Speed 48 mph    
Visibility 7 miles    
Events      
Averages and records for this station are not official NWS values.
T = Trace of Precipitation, MM = Missing Value Source: NWS Daily Summary

Daily Weather History Graph

Daily Weather History Graph

Search for Another Location

Airport or City:

Trip Planner

Search our weather history database for the weather conditions in past years. The results will help you decide how hot, cold, wet, or windy it might be!

Date:

Astronomy

Dec. 10, 2013 Rise Set
Actual Time 7:33 AM CST 4:31 PM CST
Civil Twilight 7:01 AM CST 5:04 PM CST
Nautical Twilight 6:24 AM CST 5:41 PM CST
Astronomical Twilight 5:49 AM CST 6:16 PM CST
Moon 12:44 PM CST (12/10) 12:40 AM CST (12/10)
Length of Visible Light 10h 03m
Length of Day
8h 57m
Waxing Gibbous, 62% of the Moon is Illuminated
Dec 10
Waxing Gibbous
Dec 17
Full
Dec 25
Last Quarter
Jan 1
New
Jan 7
First Quarter

Hourly Weather History & Observations

Time (CST) Temp. Windchill Dew Point Humidity Pressure Visibility Wind Dir Wind Speed Gust Speed Precip Events Conditions
12:13 AM 1.4 °F -13.5 °F -6.9 °F 68% 29.88 in 10.0 mi ESE 9.2 mph - N/A   Overcast
12:33 AM 3.2 °F -13.9 °F -5.4 °F 67% 29.87 in 10.0 mi South 12.7 mph 18.4 mph N/A   Overcast
12:53 AM 3.2 °F -16.5 °F -5.8 °F 66% 29.86 in 10.0 mi South 17.3 mph 21.9 mph N/A   Overcast
1:13 AM 4.6 °F -12.0 °F -4.4 °F 66% 29.85 in 7.0 mi South 12.7 mph 25.3 mph N/A   Overcast
1:33 AM 4.5 °F -14.9 °F -2.9 °F 72% 29.84 in 4.0 mi South 17.3 mph 25.3 mph N/A   Overcast
1:53 AM 4.6 °F -14.6 °F -1.7 °F 75% 29.82 in 4.0 mi South 17.3 mph 21.9 mph N/A   Overcast
2:13 AM 4.8 °F -13.8 °F -1.5 °F 75% 29.82 in 4.0 mi South 16.1 mph 26.5 mph N/A   Overcast
2:33 AM 5.0 °F -13.6 °F -1.1 °F 76% 29.81 in 4.0 mi South 16.1 mph 24.2 mph N/A   Overcast
2:53 AM 5.5 °F -10.2 °F -0.6 °F 76% 29.80 in 5.0 mi South 11.5 mph 24.2 mph N/A   Overcast
3:13 AM 5.7 °F -12.0 °F -0.4 °F 76% 29.78 in 10.0 mi South 15.0 mph 23.0 mph N/A   Overcast
3:33 AM 6.8 °F -8.6 °F 0.9 °F 77% 29.78 in 10.0 mi South 11.5 mph 20.7 mph N/A   Overcast
3:53 AM 8.4 °F -6.5 °F 2.8 °F 78% 29.78 in 7.0 mi SSW 11.5 mph 21.9 mph N/A   Overcast
4:13 AM 9.7 °F -5.7 °F 4.6 °F 80% 29.77 in 4.0 mi SSW 12.7 mph 21.9 mph N/A   Overcast
4:34 AM 10.6 °F -2.2 °F 5.7 °F 81% 29.77 in 2.5 mi SW 9.2 mph 21.9 mph N/A   Overcast
4:53 AM 11.5 °F -1.9 °F 7.0 °F 82% 29.77 in 3.0 mi SW 10.4 mph 18.4 mph N/A   Overcast
5:13 AM 12.2 °F -1.0 °F 7.7 °F 82% 29.77 in 5.0 mi WSW 10.4 mph 18.4 mph N/A   Overcast
5:33 AM 13.5 °F -2.1 °F 9.0 °F 82% 29.77 in 7.0 mi WSW 15.0 mph 20.7 mph N/A   Overcast
5:53 AM 14.2 °F -7.2 °F 9.1 °F 80% 29.77 in 0.8 mi West 32.2 mph 48.3 mph N/A   Overcast
6:13 AM 12.4 °F -8.7 °F 5.7 °F 75% 29.79 in 5.0 mi West 28.8 mph 43.7 mph N/A   Mostly Cloudy
6:34 AM 9.3 °F -12.1 °F 3.4 °F 77% 29.80 in 5.0 mi West 26.5 mph 43.7 mph N/A   Overcast
6:53 AM 8.6 °F -10.0 °F 3.4 °F 79% 29.84 in 4.0 mi West 18.4 mph 33.4 mph N/A   Overcast
7:13 AM 7.9 °F -14.0 °F 2.8 °F 80% 29.84 in 3.0 mi West 26.5 mph 34.5 mph N/A   Overcast
7:34 AM 6.6 °F -14.9 °F 0.7 °F 77% 29.86 in 10.0 mi West 24.2 mph 35.7 mph N/A   Overcast
7:53 AM 6.3 °F -15.4 °F 0.1 °F 76% 29.89 in 7.0 mi West 24.2 mph 38.0 mph N/A   Overcast
8:13 AM 5.7 °F -16.1 °F -0.4 °F 76% 29.90 in 5.0 mi West 24.2 mph 29.9 mph N/A   Overcast
8:34 AM 5.0 °F -16.2 °F -1.1 °F 76% 29.92 in 7.0 mi WNW 21.9 mph 33.4 mph N/A   Overcast
8:53 AM 4.8 °F -17.7 °F -1.5 °F 75% 29.93 in 4.0 mi West 25.3 mph 32.2 mph N/A   Overcast
9:13 AM 4.8 °F -13.8 °F -1.5 °F 75% 29.95 in 5.0 mi West 16.1 mph 28.8 mph N/A   Overcast
9:33 AM 4.8 °F -14.9 °F -2.0 °F 73% 29.97 in 7.0 mi West 18.4 mph 26.5 mph N/A   Overcast
9:53 AM 4.3 °F -16.2 °F -2.6 °F 73% 29.97 in 5.0 mi West 19.6 mph 28.8 mph N/A   Overcast
10:13 AM 4.3 °F -17.2 °F -2.9 °F 72% 29.98 in 7.0 mi West 21.9 mph 25.3 mph N/A   Overcast
10:33 AM 3.9 °F -17.6 °F -4.4 °F 69% 29.99 in 10.0 mi WNW 21.9 mph 28.8 mph N/A   Overcast
10:53 AM 5.0 °F -13.6 °F -3.1 °F 69% 30.01 in 10.0 mi West 16.1 mph 24.2 mph N/A   Mostly Cloudy
11:13 AM 5.4 °F -14.2 °F -3.1 °F 68% 30.01 in 10.0 mi West 18.4 mph 21.9 mph N/A   Scattered Clouds
11:33 AM 7.2 °F -6.4 °F -2.0 °F 66% 30.02 in 10.0 mi West 9.2 mph 18.4 mph N/A   Clear
11:53 AM 7.0 °F -9.1 °F -2.9 °F 64% 30.03 in 10.0 mi West 12.7 mph 26.5 mph N/A   Clear
12:13 PM 7.5 °F -11.9 °F -2.0 °F 65% 30.04 in 10.0 mi West 19.6 mph 28.8 mph N/A   Clear
12:33 PM 7.9 °F -11.5 °F -2.7 °F 62% 30.05 in 10.0 mi West 19.6 mph 25.3 mph N/A   Clear
12:53 PM 7.2 °F -10.2 °F -3.3 °F 62% 30.04 in 10.0 mi West 15.0 mph 29.9 mph N/A   Clear
1:13 PM 8.2 °F -10.5 °F -1.8 °F 64% 30.04 in 10.0 mi West 18.4 mph 27.6 mph N/A   Scattered Clouds
1:33 PM 7.7 °F -11.2 °F -2.6 °F 63% 30.06 in 10.0 mi West 18.4 mph 27.6 mph N/A   Scattered Clouds
1:53 PM 7.7 °F -11.2 °F -3.1 °F 61% 30.06 in 10.0 mi West 18.4 mph 28.8 mph N/A   Clear
2:13 PM 8.6 °F -9.5 °F -1.7 °F 63% 30.06 in 10.0 mi WSW 17.3 mph 26.5 mph N/A   Clear
2:33 PM 8.2 °F -8.8 °F -2.6 °F 61% 30.05 in 10.0 mi West 15.0 mph 26.5 mph N/A   Clear
2:53 PM 8.8 °F -6.1 °F -1.8 °F 62% 30.06 in 10.0 mi West 11.5 mph 16.1 mph N/A   Clear
3:13 PM 8.8 °F -3.5 °F -1.3 °F 64% 30.06 in 10.0 mi West 8.1 mph - N/A   Clear
3:33 PM 9.3 °F -2.8 °F -0.8 °F 64% 30.07 in 10.0 mi West 8.1 mph - N/A   Clear
3:53 PM 8.4 °F -4.9 °F -1.7 °F 64% 30.07 in 10.0 mi West 9.2 mph - N/A   Clear
4:13 PM 9.3 °F -2.8 °F -0.2 °F 65% 30.08 in 10.0 mi WSW 8.1 mph - N/A   Clear
4:33 PM 8.4 °F -4.9 °F -0.8 °F 66% 30.08 in 10.0 mi WSW 9.2 mph 16.1 mph N/A   Scattered Clouds
4:53 PM 9.1 °F -3.0 °F -0.2 °F 66% 30.09 in 10.0 mi WSW 8.1 mph - N/A   Mostly Cloudy
5:13 PM 8.6 °F -2.6 °F -0.8 °F 66% 30.09 in 10.0 mi WSW 6.9 mph - N/A   Overcast
5:33 PM 8.8 °F 2.2 °F -0.4 °F 66% 30.08 in 10.0 mi SW 3.5 mph - N/A   Overcast
5:53 PM 9.5 °F 3.0 °F 0.9 °F 68% 30.09 in 10.0 mi SW 3.5 mph - N/A   Overcast
6:13 PM 10.4 °F 2.2 °F 1.6 °F 68% 30.10 in 10.0 mi West 4.6 mph - N/A   Overcast
6:33 PM 10.8 °F 1.2 °F 1.9 °F 68% 30.11 in 10.0 mi West 5.8 mph - N/A   Overcast
6:53 PM 11.3 °F -0.4 °F 3.0 °F 69% 30.11 in 10.0 mi West 8.1 mph - N/A   Overcast
7:13 PM 11.5 °F -1.1 °F 3.4 °F 70% 30.11 in 10.0 mi SW 9.2 mph - N/A   Overcast
7:33 PM 12.0 °F 0.5 °F 4.6 °F 72% 30.11 in 7.0 mi WSW 8.1 mph - N/A   Overcast
7:53 PM 12.4 °F 2.0 °F 6.3 °F 76% 30.12 in 3.0 mi WSW 6.9 mph - N/A   Overcast
8:14 PM 12.7 °F -0.4 °F 7.3 °F 79% 30.13 in 3.0 mi WSW 10.4 mph 20.7 mph N/A   Overcast
8:33 PM 12.9 °F 0.7 °F 8.1 °F 81% 30.13 in 4.0 mi WSW 9.2 mph 18.4 mph N/A   Overcast
8:53 PM 13.1 °F -0.7 °F 8.4 °F 82% 30.14 in 3.0 mi WSW 11.5 mph 18.4 mph N/A   Overcast
9:14 PM 13.3 °F 0.3 °F 8.4 °F 81% 30.14 in 5.0 mi WSW 10.4 mph 18.4 mph N/A   Overcast
9:33 PM 13.6 °F 2.5 °F 8.4 °F 80% 30.15 in 7.0 mi West 8.1 mph - N/A   Overcast
9:53 PM 14.5 °F 2.7 °F 9.7 °F 81% 30.16 in 7.0 mi WSW 9.2 mph - N/A   Overcast
10:14 PM 14.0 °F 2.9 °F 9.1 °F 81% 30.16 in 5.0 mi West 8.1 mph - N/A   Overcast
10:33 PM 14.0 °F 2.9 °F 9.7 °F 83% 30.16 in 4.0 mi West 8.1 mph - N/A   Overcast
10:53 PM 14.4 °F 3.3 °F 10.0 °F 83% 30.17 in 4.0 mi West 8.1 mph - N/A   Overcast
11:14 PM 14.7 °F 2.9 °F 10.4 °F 83% 30.18 in 4.0 mi West 9.2 mph 16.1 mph N/A   Overcast
11:33 PM 14.7 °F 3.8 °F 10.2 °F 82% 30.18 in 5.0 mi West 8.1 mph 18.4 mph N/A   Overcast
11:53 PM 15.1 °F 2.5 °F 10.2 °F 81% 30.18 in 7.0 mi West 10.4 mph - N/A   Overcast